Hourly Weather Yuzhnoukrainsk

Today, 5 August, Wednesday

Time Temperature Precipitation Wind Pressure Humidity
00:00 +22°C° 0 mm 1 mps 753 mmHg 51%
01:00 +22°C° 0 mm 1 mps 753 mmHg 51%
02:00 +21°C° 0 mm 1 mps 753 mmHg 52%
03:00 +21°C° 0 mm 1 mps 753 mmHg 53%
04:00 +20°C° 0 mm 2 mps 753 mmHg 54%
05:00 +20°C° 0 mm 2 mps 754 mmHg 55%
06:00 +23°C° 0 mm 2 mps 754 mmHg 52%
07:00 +25°C° 0 mm 2 mps 754 mmHg 48%
08:00 +27°C° 0 mm 3 mps 754 mmHg 43%
09:00 +29°C° 0 mm 3 mps 754 mmHg 39%
10:00 +30°C° 0 mm 3 mps 754 mmHg 34%
11:00 +33°C° 0 mm 4 mps 754 mmHg 29%
12:00 +34°C° 0 mm 4 mps 754 mmHg 28%
13:00 +34°C° 0 mm 4 mps 754 mmHg 26%
14:00 +35°C° 0 mm 4 mps 754 mmHg 25%
15:00 +34°C° 0 mm 4 mps 754 mmHg 25%
16:00 +34°C° 0 mm 4 mps 754 mmHg 26%
17:00 +34°C° 0 mm 4 mps 753 mmHg 27%
18:00 +32°C° 0 mm 4 mps 754 mmHg 31%
19:00 +28°C° 0 mm 4 mps 754 mmHg 36%
20:00 +26°C° 0 mm 4 mps 754 mmHg 40%
21:00 +25°C° 0 mm 4 mps 754 mmHg 42%
22:00 +23°C° 0 mm 4 mps 754 mmHg 44%
23:00 +24°C° 0 mm 3 mps 755 mmHg 46%

Tomorrow, 6 August, Thursday

Time Temperature Precipitation Wind Pressure Humidity
00:00 +22°C° 0 mm 3 mps 755 mmHg 48%
01:00 +21°C° 0 mm 3 mps 755 mmHg 50%
02:00 +21°C° 0 mm 3 mps 755 mmHg 53%
03:00 +20°C° 0 mm 3 mps 756 mmHg 55%
04:00 +20°C° 0 mm 3 mps 756 mmHg 58%
05:00 +20°C° 0 mm 3 mps 756 mmHg 60%
06:00 +22°C° 0 mm 3 mps 756 mmHg 56%
07:00 +25°C° 0 mm 4 mps 756 mmHg 52%
08:00 +27°C° 0 mm 4 mps 756 mmHg 48%
09:00 +28°C° 0 mm 5 mps 756 mmHg 44%
10:00 +30°C° 0 mm 5 mps 757 mmHg 40%
11:00 +32°C° 0 mm 5 mps 757 mmHg 36%
12:00 +33°C° 0 mm 5 mps 756 mmHg 34%
13:00 +33°C° 0 mm 5 mps 756 mmHg 32%
14:00 +34°C° 0 mm 5 mps 756 mmHg 31%
15:00 +34°C° 0 mm 5 mps 756 mmHg 32%
16:00 +34°C° 0 mm 5 mps 756 mmHg 33%
17:00 +34°C° 0 mm 5 mps 756 mmHg 34%
18:00 +32°C° 0 mm 5 mps 756 mmHg 39%
19:00 +29°C° 0 mm 5 mps 756 mmHg 44%
20:00 +27°C° 0 mm 5 mps 756 mmHg 49%
21:00 +26°C° 0 mm 5 mps 756 mmHg 49%
22:00 +26°C° 0 mm 5 mps 757 mmHg 50%
23:00 +25°C° 0 mm 5 mps 757 mmHg 51%

Day after tomorrow, 7 August, Friday

Time Temperature Precipitation Wind Pressure Humidity
00:00 +25°C° 0 mm 5 mps 757 mmHg 53%
01:00 +23°C° 0 mm 4 mps 757 mmHg 56%
02:00 +23°C° 0 mm 4 mps 757 mmHg 58%
03:00 +22°C° 0 mm 4 mps 757 mmHg 61%
04:00 +22°C° 0 mm 4 mps 757 mmHg 65%
05:00 +21°C° 0 mm 4 mps 757 mmHg 68%
06:00 +23°C° 0 mm 4 mps 757 mmHg 63%
07:00 +26°C° 0 mm 5 mps 757 mmHg 58%
08:00 +27°C° 0 mm 5 mps 757 mmHg 53%
09:00 +29°C° 0 mm 5 mps 757 mmHg 48%
10:00 +30°C° 0 mm 5 mps 757 mmHg 43%
11:00 +33°C° 0 mm 5 mps 757 mmHg 38%
12:00 +33°C° 0 mm 5 mps 757 mmHg 36%
13:00 +34°C° 0 mm 5 mps 757 mmHg 34%
14:00 +35°C° 0 mm 5 mps 756 mmHg 33%
15:00 +34°C° 0 mm 6 mps 756 mmHg 35%
16:00 +34°C° 0 mm 6 mps 756 mmHg 37%
17:00 +34°C° 0 mm 6 mps 755 mmHg 38%
18:00 +32°C° 0 mm 6 mps 756 mmHg 46%
19:00 +29°C° 0 mm 5 mps 756 mmHg 53%
20:00 +27°C° 0 mm 5 mps 756 mmHg 60%
21:00 +27°C° 0 mm 5 mps 756 mmHg 61%
22:00 +26°C° 0 mm 5 mps 756 mmHg 63%
23:00 +24°C° 0 mm 6 mps 756 mmHg 64%

8 August, Saturday

Time Temperature Precipitation Wind Pressure Humidity
00:00 +25°C° 0 mm 5 mps 756 mmHg 67%
01:00 +23°C° 0 mm 5 mps 756 mmHg 71%
02:00 +22°C° 0 mm 5 mps 756 mmHg 74%
03:00 +22°C° 0 mm 5 mps 756 mmHg 76%
04:00 +21°C° 0 mm 5 mps 756 mmHg 78%
05:00 +21°C° 0 mm 5 mps 756 mmHg 80%
06:00 +22°C° 0 mm 6 mps 756 mmHg 73%
07:00 +23°C° 0 mm 6 mps 756 mmHg 67%
08:00 +26°C° 0 mm 6 mps 756 mmHg 61%
09:00 +27°C° 0 mm 6 mps 756 mmHg 55%
10:00 +28°C° 0 mm 7 mps 756 mmHg 49%
11:00 +29°C° 0 mm 7 mps 756 mmHg 43%
12:00 +30°C° 0 mm 7 mps 755 mmHg 41%
13:00 +30°C° 0 mm 6 mps 755 mmHg 39%
14:00 +32°C° 0 mm 6 mps 754 mmHg 37%
15:00 +30°C° 0 mm 6 mps 754 mmHg 38%
16:00 +30°C° 0 mm 6 mps 754 mmHg 39%
17:00 +30°C° 0 mm 7 mps 754 mmHg 40%
18:00 +28°C° 0 mm 6 mps 754 mmHg 44%
19:00 +26°C° 0 mm 5 mps 754 mmHg 48%
20:00 +25°C° 0 mm 5 mps 754 mmHg 52%
21:00 +23°C° 0 mm 5 mps 754 mmHg 54%
22:00 +22°C° 0 mm 5 mps 754 mmHg 56%
23:00 +22°C° 0 mm 5 mps 754 mmHg 59%

9 August, Sunday

Time Temperature Precipitation Wind Pressure Humidity
00:00 +21°C° 0 mm 5 mps 754 mmHg 62%
01:00 +20°C° 0 mm 5 mps 754 mmHg 65%
02:00 +20°C° 0 mm 5 mps 754 mmHg 68%
03:00 +19°C° 0 mm 4 mps 754 mmHg 70%
04:00 +19°C° 0 mm 4 mps 754 mmHg 73%
05:00 +19°C° 0 mm 4 mps 754 mmHg 75%
06:00 +20°C° 0 mm 5 mps 754 mmHg 69%
07:00 +22°C° 0 mm 5 mps 754 mmHg 62%
08:00 +24°C° 0 mm 6 mps 754 mmHg 56%
09:00 +26°C° 0 mm 6 mps 754 mmHg 51%
10:00 +27°C° 0 mm 6 mps 754 mmHg 46%
11:00 +29°C° 0 mm 6 mps 754 mmHg 41%
12:00 +29°C° 0 mm 5 mps 753 mmHg 38%
13:00 +30°C° 0 mm 5 mps 753 mmHg 35%
14:00 +32°C° 0 mm 5 mps 753 mmHg 33%
15:00 +30°C° 0 mm 5 mps 753 mmHg 34%
16:00 +30°C° 0 mm 5 mps 752 mmHg 35%
17:00 +29°C° 0 mm 5 mps 752 mmHg 35%
18:00 +27°C° 0 mm 5 mps 752 mmHg 40%
19:00 +26°C° 0 mm 4 mps 753 mmHg 44%
20:00 +23°C° 0 mm 4 mps 753 mmHg 49%
21:00 +22°C° 0 mm 4 mps 753 mmHg 51%
22:00 +21°C° 0 mm 4 mps 753 mmHg 54%
23:00 +21°C° 0 mm 4 mps 753 mmHg 56%

10 August, Monday

Time Temperature Precipitation Wind Pressure Humidity
00:00 +20°C° 0 mm 4 mps 753 mmHg 57%
01:00 +19°C° 0 mm 4 mps 753 mmHg 58%
02:00 +19°C° 0 mm 3 mps 753 mmHg 59%
03:00 +19°C° 0 mm 3 mps 753 mmHg 60%
04:00 +18°C° 0 mm 3 mps 753 mmHg 61%
05:00 +18°C° 0 mm 3 mps 753 mmHg 62%
06:00 +20°C° 0 mm 3 mps 753 mmHg 57%
07:00 +22°C° 0 mm 3 mps 754 mmHg 51%
08:00 +25°C° 0 mm 3 mps 754 mmHg 46%
09:00 +26°C° 0 mm 4 mps 754 mmHg 42%
10:00 +28°C° 0 mm 4 mps 754 mmHg 38%
11:00 +29°C° 0 mm 4 mps 754 mmHg 33%
12:00 +29°C° 0 mm 4 mps 754 mmHg 32%
13:00 +30°C° 0 mm 4 mps 753 mmHg 31%
14:00 +32°C° 0 mm 4 mps 753 mmHg 29%
15:00 +30°C° 0 mm 5 mps 753 mmHg 31%
16:00 +30°C° 0 mm 5 mps 753 mmHg 33%
17:00 +29°C° 0 mm 5 mps 753 mmHg 35%
18:00 +28°C° 0 mm 4 mps 753 mmHg 40%
19:00 +26°C° 0 mm 4 mps 753 mmHg 45%
20:00 +24°C° 0 mm 3 mps 753 mmHg 50%
21:00 +24°C° 0 mm 3 mps 753 mmHg 53%
22:00 +22°C° 0 mm 3 mps 754 mmHg 56%
23:00 +22°C° 0 mm 3 mps 754 mmHg 58%
Show more